Location: Austin
(30.3000°N, 97.7500°W)
Time: 11:19:06
(UTC-05:00)

Cosmos 1553 Rocket - Pass Details

Date: 03 April 2024
Orbit: 942 x 1007 km, 82.9° (Epoch: 21 April)

Event Time Altitude Azimuth Distance (km) Brightness Sun altitude
Rises 06:30:13 0° 356° (N) 3,719 7.2 -10.8°
Reaches altitude 10° 06:32:46 10° 358° (N) 2,759 6.5 -10.3°
Maximum altitude 06:39:06 77° 84° (E) 1,008 4.3 -8.9°
Drops below altitude 10° 06:45:18 10° 170° (S) 2,701 6.3 -7.6°
Sets 06:47:47 0° 172° (S) 3,636 7.0 -7.1°
